Location: ????? ???
(55.8970°N, 38.8208°E)
Time: 10:52:06
(UTC+00:00)

Daily predictions for brighter satellites

Satellite Brightness Start Highest point End
(mag) Time Altitude Azimuth Time Altitude Azimuth Time Altitude Azimuth
Meteor 2-9 Rocket 4.5 16:08:05 10° SSE 16:13:16 44° E 16:18:22 10° NNE
Cosmos 1833 4.5 16:10:44 10° S 16:16:01 45° ESE 16:21:22 10° NE
Cosmos 1707 2.7 16:12:32 10° N 16:16:20 60° ENE 16:20:05 10° SSE
Cosmos 1727 Rocket 4.1 16:14:17 10° S 16:20:29 61° E 16:26:40 10° NNE
CSL-04 Debris 4.3 16:15:23 10° SE 16:20:40 57° ENE 16:26:00 10° NNW
YAOGAN 1 3.3 16:17:38 10° S 16:21:54 59° WSW 16:26:12 10° NNW
SL-14 R/B 4.4 16:20:07 10° N 16:23:21 24° ENE 16:26:32 10° ESE
Cosmos 1536 3.0 16:20:10 10° SSW 16:24:06 77° WNW 16:28:03 10° N
Cosmos 676 Rocket 4.0 16:19:24 10° NNW 16:24:38 83° ENE 16:29:53 10° SSE
Cosmos 2061 Rocket 4.5 16:19:57 10° N 16:26:06 44° ENE 16:32:12 10° SE
USA 215 3.3 16:20:12 10° ENE 16:26:47 76° SSE 16:33:21 10° WSW
Feng Yun 1-1 Rocket 4.3 16:21:16 10° SSE 16:26:49 84° ENE 16:32:33 10° NNW
Cosmos 2082 Rocket 3.8 16:26:51 10° WSW 16:32:04 36° NW 16:37:16 10° NNE
CZ-4 R/B 1.6 16:28:51 10° S 16:32:40 70° WSW 16:36:34 10° NNW
COSMO-SKYMED 1 3.9 16:30:15 10° N 16:34:24 45° WNW 16:38:33 10° SW
Cosmos 1674 2.5 16:31:20 10° N 16:35:04 76° ENE 16:38:47 10° SSE
Landsat 7 3.8 16:31:35 10° SSE 16:36:16 69° ENE 16:40:59 10° NNW
Cosmos 2360 Rocket 3.8 16:32:50 10° NW 16:38:00 36° WSW 16:43:06 10° S
Cosmos 1741 Rocket 4.3 16:33:25 10° NNW 16:38:33 51° NE 16:43:37 10° SE
CZ-4C R/B 3.3 16:34:05 10° WNW 16:39:53 46° N 16:47:06 10° E
Terra 3.7 16:41:54 10° E 16:44:21 14° NE 16:46:50 10° NNE
USA 229 DEB 3.7 16:38:15 10° SW 16:44:41 87° NW 16:51:48 10° NE
USA 229 3.7 16:38:21 10° SW 16:44:47 87° NW 16:51:54 10° NE
NOSS 2-2 (C) 4.3 16:42:19 10° W 16:45:28 39° NNW 16:49:08 10° NE
Okean 2 3.7 16:42:32 10° N 16:46:27 43° ENE 16:50:21 10° SE
Cosmos 1459 Rocket 3.9 16:40:34 10° NNW 16:46:40 88° ENE 16:52:44 10° S
EP 1 4.4 16:44:10 10° SW 16:47:22 76° SE 16:50:02 10° NE
Cosmos 1954 Rocket 4.5 16:42:36 10° NNW 16:47:47 64° WSW 16:52:58 10° SSE
SL-16 R/B 3.3 16:43:47 10° NNW 16:48:48 30° NNE 16:53:07 13° E
SPOT 5 4.3 16:47:42 13° E 16:50:24 20° NE 16:53:55 10° N
Cosmos 1725 Rocket 4.0 16:45:19 10° N 16:51:30 66° ENE 16:57:38 10° SSE
SJ 16-02 3.5 16:50:52 10° N 16:53:05 13° NE 16:55:18 10° ENE
Cosmos 1437 Rocket 2.9 16:49:10 10° SSW 16:53:14 82° WNW 16:57:19 10° NNE
Cosmos 968 Rocket 4.3 16:48:47 10° NNW 16:53:35 36° NE 16:57:13 16° ESE
Okean 1-7 3.4 16:49:39 10° NNW 16:54:02 68° W 16:58:21 10° S
Cosmos 1933 Rocket 3.5 16:50:03 10° S 16:54:19 63° E 16:58:38 10° NNE
Okean 3 4.1 16:54:30 10° NNW 16:58:38 60° W 17:02:47 10° S
Cosmos 2344 4.3 16:51:28 10° W 16:58:41 53° N 17:07:24 10° ENE
BREEZE M DEB (TANK) 3.5 16:57:18 10° SW 16:59:08 18° S 16:59:40 17° SSE
ISS -2.8 16:56:57 10° SW 16:59:58 31° SSE 17:01:30 21° ESE
SL-27 R/B 2.5 16:58:41 10° S 17:01:51 45° ESE 17:05:00 10° NE
H-2A R/B 3.7 17:00:46 17° ESE 17:03:07 27° ENE 17:06:52 10° N
Cosmos 1869 Rocket 3.8 16:59:31 10° SSE 17:03:37 43° E 17:07:45 10° NNE
Cosmos 1802 Rocket 4.0 16:57:36 10° NNW 17:03:51 88° W 17:10:10 10° S
Cosmos 1726 2.8 17:01:56 13° SSE 17:04:36 30° E 17:07:44 10° NNE
Exosat Rocket 3.9 17:01:23 10° SSW 17:06:36 64° ESE 17:13:28 10° NE
Cosmos 1733 3.5 17:03:15 10° SSE 17:06:48 41° E 17:10:23 10° NNE
Resurs 01 Rocket 1.7 17:02:39 11° SSE 17:06:49 58° ENE 17:11:11 10° N
Ariane Rocket 3.8 17:04:46 18° ESE 17:07:54 34° ENE 17:12:26 10° N
MetOp-A 4.5 17:04:05 15° SE 17:08:14 46° ENE 17:13:10 10° N
ERS-1 Rocket 4.3 17:06:02 17° E 17:08:30 24° NE 17:12:30 10° N
NOSS 3-1 (A) 4.1 17:05:38 10° WSW 17:11:12 57° NNW 17:18:04 10° ENE
USA 186 2.8 17:09:12 10° S 17:12:12 46° W 17:15:14 10° NNW
NOSS 3-2 (A) 4.3 17:06:59 10° NW 17:14:05 65° SW 17:22:16 11° SSE
SPOT 3 Rocket 4.5 17:13:11 20° ESE 17:15:56 32° ENE 17:20:31 10° N
Spot 1 4.4 17:11:07 10° NNE 17:15:58 89° WNW 17:21:01 10° SSW
ATLAS 3B R/B 3.7 17:12:55 10° WNW 17:19:51 47° N 17:27:10 10° ENE
Cosmos 1626 4.1 17:19:14 10° NNW 17:22:21 28° W 17:25:27 10° SSW
Cosmos 2016 Rocket 4.1 17:16:47 10° NNW 17:22:55 79° W 17:29:01 10° S
Cosmos 1371 Rocket 4.0 17:17:46 10° SSW 17:23:04 87° WNW 17:28:20 10° NNE
NOSS 3-2 (C) 4.0 17:16:06 10° NW 17:23:13 82° SW 17:29:43 18° SE
Landsat 5 3.6 17:20:39 10° NNE 17:24:19 42° E 17:27:29 13° S
Cosmos 2237 Rocket 2.2 17:20:04 10° NW 17:25:46 83° NE 17:29:43 20° SE
Meteor 2-10 3.9 17:20:55 10° S 17:25:50 58° E 17:30:51 10° NNE
USA 281 3.8 17:19:47 10° NNE 17:26:14 61° NW 17:32:40 10° SW
CSL-04 Rocket 4.3 17:20:53 10° S 17:26:23 61° WSW 17:31:54 10° NNW
PKM 4.0 17:22:53 10° W 17:27:09 61° SSW 17:28:37 30° SE
Cosmos 2123 Rocket 4.0 17:23:10 10° S 17:29:28 80° E 17:35:50 10° NNE
CENTAUR R/B 3.7 17:22:59 10° NW 17:30:45 56° SW 17:39:15 11° SSE
Cosmos 2056 Rocket 3.5 17:26:35 10° SSW 17:31:44 80° WNW 17:36:53 10° NNE
Okean-O 3.2 17:30:08 10° S 17:34:29 57° WSW 17:38:53 10° NNW
GEOS 3 Rocket 3.8 17:29:33 10° NE 17:34:57 78° NW 17:40:20 10° WSW
USA 238 DEB 3.9 17:29:27 10° NW 17:36:38 83° SW 17:41:47 23° SE
USA 238 3.9 17:29:33 10° NW 17:36:44 83° SW 17:41:52 23° SE
Cosmos 1766 3.9 17:37:18 33° E 17:37:18 33° E 17:40:38 10° NNE
Meteor 1-24 Rocket 4.4 17:33:13 10° N 17:38:43 40° ENE 17:41:14 27° ESE
Cosmos 1674 Rocket 3.8 17:37:13 10° N 17:41:28 47° ENE 17:42:46 36° ESE
Cosmos 2221 Rocket 3.7 17:37:40 10° N 17:42:05 57° ENE 17:43:46 34° SE
IRS-1A Rocket 4.3 17:38:17 18° SSE 17:42:46 80° ENE 17:48:39 10° NNW
NOSS 0 Rocket 4.4 17:36:49 10° NW 17:42:53 57° WSW 17:48:03 14° SSE
Cosmos 1850 Rocket 4.4 17:38:04 10° NNW 17:43:21 63° WSW 17:47:35 16° S
SPOT 1/Viking Rocket 3.9 17:38:16 10° S 17:43:25 67° WSW 17:48:38 10° NNW
Cosmos 1975 3.4 17:39:41 10° SSW 17:43:35 57° WNW 17:47:33 10° N
Cosmos 1900 4.3 17:40:16 10° SSW 17:45:07 61° SE 17:49:59 10° NE
Cosmos 1624 Rocket 4.4 17:40:11 10° SW 17:45:28 67° WNW 17:50:49 10° NNE
Cosmos 1980 3.8 17:40:53 10° NW 17:46:35 73° WSW 17:50:15 23° SSE
Okean O Rocket 4.2 17:43:32 10° SW 17:46:54 21° W 17:50:17 10° NW
USA 245 3.6 17:46:54 37° ENE 17:46:56 37° ENE 17:50:26 10° N
Cosmos 1733 Rocket 3.3 17:46:58 38° SE 17:47:56 45° E 17:52:04 10° NNE
NOSS 8 (F) 4.3 17:46:02 10° NW 17:49:06 80° NE 17:49:44 56° ESE
Iridium 4 Rocket 3.8 17:45:08 10° NNW 17:49:18 51° W 17:53:19 10° SSW
Cosmos 2219 Rocket 4.3 17:46:27 10° NW 17:50:51 23° WSW 17:55:14 10° SSW
MetOp-B 4.1 17:49:22 26° SSE 17:52:28 78° ENE 17:57:51 10° NNW
CARTOSAT-1 3.5 17:50:56 27° SSE 17:53:13 85° WSW 17:57:33 10° NNW
Cosmos 1420 Rocket 4.5 17:48:24 10° SW 17:53:35 62° WNW 17:58:45 10° NNE
Cosmos 1378 Rocket 3.5 17:49:44 10° N 17:54:07 63° ENE 17:55:26 42° SE
COSMOS 2428 4.2 17:50:41 10° NW 17:55:44 33° WSW 18:00:47 10° S
Cosmos 2098 Rocket 4.1 17:50:28 10° SSW 17:55:52 69° WNW 18:02:25 10° N
Cosmos 1805 3.3 17:52:13 10° SSW 17:56:01 77° WNW 17:59:52 10° N
Cosmos 1110 Rocket 4.1 17:52:04 10° S 17:57:06 50° ESE 18:02:07 10° NE
Meteor 2-5 Rocket 4.0 17:51:49 10° N 17:57:30 55° ENE 17:59:44 35° SE
Cosmos 1943 4.4 17:53:04 10° NNW 17:58:01 30° NNE 18:00:25 22° ENE
MOS 1 4.5 17:54:39 16° S 17:59:16 72° WSW 18:05:01 10° NNW
SL-14 R/B 4.3 17:55:56 10° NNW 17:59:37 42° W 18:02:28 15° SSW
NOSS 3-1 (C) 4.5 17:54:26 10° WNW 18:00:14 45° N 18:06:56 11° ENE
NOSS 8 (E) 4.2 17:57:31 10° NW 18:00:36 89° SSW 18:00:54 73° SE
Cosmos 1452 Rocket 3.4 18:04:13 10° SSW 18:09:28 77° ESE 18:14:47 10° NNE
Spot 2 4.4 18:08:10 43° SE 18:09:47 72° ENE 18:14:40 10° NNW
USA 215 3.3 18:05:30 23° E 18:09:56 82° N 18:16:30 10° W
Cosmos 1513 Rocket 4.4 18:04:05 10° N 18:10:10 71° ENE 18:12:45 36° SSE
H-2A R/B 4.3 18:07:16 10° NE 18:08:01 13° NE 18:08:01 13° NE
Cosmos 2297 Rocket 2.3 18:08:52 26° S 18:11:39 48° ESE 18:17:05 10° NE
ARIANE 5 R/B 3.9 18:15:52 26° NE 18:15:52 26° NE 18:19:23 10° N
Cosmos 1331 Rocket 3.9 18:12:10 17° S 18:16:08 63° ESE 18:21:16 10° NNE
Cosmos 192 4.3 18:11:34 10° SSW 18:16:33 83° WNW 18:21:33 10° NNE
Terra 1.8 18:20:31 54° ESE 18:21:08 60° ENE 18:25:49 10° N
Cosmos 1025 Rocket 3.9 18:17:19 10° N 18:20:59 35° NE 18:20:59 35° NE
deb Chang Zheng 4 3.3 18:23:50 68° NE 18:23:50 68° NE 18:27:32 10° NNW
ADEOS Rocket 3.2 18:21:27 40° SE 18:23:55 69° ENE 18:30:57 10° NNW
Cosmos 2227 Rocket 3.0 18:28:41 34° ENE 18:28:41 34° ENE 18:32:25 10° NE
Cosmos 220 Rocket 4.4 18:23:33 10° NNW 18:27:27 45° NE 18:27:27 45° NE
SPOT 5 2.7 18:26:53 57° S 18:27:51 86° WSW 18:32:43 10° NNW
BREEZE-M DEB (TANK) 4.4 18:24:44 10° W 18:27:39 21° SW 18:27:39 21° SW
Cosmos 2034 Rocket 4.0 18:22:10 10° N 18:28:21 59° ENE 18:29:51 47° ESE
CZ-4C R/B 2.8 18:22:40 10° NW 18:29:16 76° NNE 18:32:26 40° ESE
Cosmos 1975 Rocket 3.9 18:25:13 10° N 18:28:52 36° NE 18:28:52 36° NE
Meteor 2-15 4.4 18:25:44 10° NNW 18:31:56 88° ENE 18:34:10 43° SSE
Cosmos 1470 4.0 18:33:36 32° NE 18:33:36 32° NE 18:35:55 10° NNE
SJ 16-02 1.8 18:28:23 10° NNW 18:32:32 48° NE 18:32:32 48° NE
Meteor 2-8 Rocket 4.3 18:26:41 10° NNW 18:32:52 83° ENE 18:34:53 45° SSE
SL-16 R/B 2.1 18:27:53 10° NW 18:33:39 90° S 18:35:00 55° SSE
Cosmos 968 Rocket 4.0 18:30:34 10° NW 18:35:38 54° WSW 18:37:13 39° SSW
Cosmos 1271 Rocket 3.4 18:36:47 44° NNE 18:36:47 44° NNE 18:39:27 10° NNE
ISS -1.6 18:33:12 10° WSW 18:34:27 20° WSW 18:34:27 20° WSW
Meteor 2-15 Rocket 4.3 18:30:35 10° N 18:36:47 77° ENE 18:38:27 50° SSE
H-2A R/B 3.1 18:37:07 44° SSW 18:38:09 55° WSW 18:42:33 10° NNW
Cosmos 1726 4.0 18:36:10 10° SW 18:39:14 28° WNW 18:42:21 10° N
Resurs 01 Rocket 3.7 18:40:11 10° SW 18:43:38 23° W 18:47:13 10° NW
Ariane Rocket 3.6 18:44:56 35° SSW 18:46:43 51° W 18:51:41 10° NNW
ERS-1 Rocket 3.0 18:46:00 61° S 18:46:50 77° WSW 18:51:54 10° NNW
Cosmos 1867 3.4 18:44:03 10° SW 18:49:29 75° SE 18:54:58 10° NE
SPOT 3 Rocket 3.9 18:53:49 45° SSW 18:55:06 58° WSW 19:00:18 10° NNW
ATLAS CENTAUR R/B 3.7 18:41:28 10° SW 18:55:19 72° SSE 18:59:11 30° ENE
Meteor 1-15 Rocket 4.2 18:54:43 51° SSW 18:56:19 89° ESE 19:02:15 10° NNE
Meteor 1-22 Rocket 4.3 18:55:48 59° SSE 18:56:58 77° E 19:03:04 10° NNE
Spot 2 Rocket 3.7 18:56:49 56° SSW 18:57:38 66° WSW 19:02:45 10° NNW
Meteor 2-19 Rocket 4.5 18:58:40 57° E 18:58:43 57° E 19:04:42 10° NNE
Cosmos 1302 Rocket 4.2 18:59:36 59° ENE 18:59:36 59° ENE 19:04:04 10° NNE
Meteor 1-12 Rocket 4.2 18:57:56 47° SSW 18:59:41 85° WNW 19:05:27 10° NNE
ASTEX 1 4.5 19:07:54 34° NE 19:07:54 34° NE 19:11:26 10° N
Cosmos 1340 Rocket 3.8 19:04:02 10° NNW 19:06:47 43° NNW 19:06:47 43° NNW
Cosmos 2237 Rocket 4.0 19:04:49 10° NW 19:09:14 24° WSW 19:11:34 18° SW
ATLAS 3B R/B 3.3 19:04:37 10° WNW 19:11:53 56° NNE 19:15:03 35° E
Cosmos 1464 Rocket 4.4 19:08:08 10° NNW 19:14:20 58° W 19:16:24 40° SSW
Cosmos 2344 4.0 19:06:36 10° WNW 19:14:25 67° NNE 19:18:52 36° E
Cosmos 1503 Rocket 4.0 19:12:04 10° NNW 19:17:03 77° NNE 19:17:03 77° NNE
Cosmos 2263 Rocket 4.1 19:24:10 17° NE 19:24:10 17° NE 19:25:33 10° NE
Meteor 1-24 Rocket 4.5 19:16:22 10° NNW 19:21:59 49° W 19:23:26 41° SW
Cosmos 2279 Rocket 4.2 19:17:26 10° N 19:23:35 53° ENE 19:23:35 53° ENE
Cosmos 1486 Rocket 4.3 19:23:40 10° NNW 19:28:42 59° W 19:28:42 59° W
Cosmos 1603 3.8 19:30:57 10° NNW 19:36:27 71° NNE 19:36:27 71° NNE
Cosmos 1943 3.3 19:37:06 10° NW 19:42:13 74° NW 19:42:13 74° NW
H-2A R/B 3.5 19:42:21 10° NNE 19:45:01 35° N 19:45:01 35° N
ARIANE 5 R/B 3.9 19:53:23 37° NW 19:53:23 37° NW 19:56:16 10° NNW
NOSS 3-1 (C) 4.1 19:45:42 10° NW 19:52:11 60° NNE 19:54:19 45° ENE
USA 215 3.1 19:52:49 83° SSE 19:53:01 85° SSW 19:59:37 10° WNW
Cosmos 2297 Rocket 3.1 19:50:20 10° WSW 19:55:47 47° NW 20:01:17 10° NNE
Cosmos 1634 Rocket 4.0 19:50:59 10° NNW 19:57:17 73° W 19:57:19 73° W
Terra 3.5 19:59:15 25° W 19:59:15 25° W 20:03:04 10° NW
Cosmos 2219 3.5 20:01:24 61° N 20:01:24 61° N 20:06:10 10° NNE
Cosmos 2082 Rocket 4.4 20:00:00 10° NNW 20:04:05 20° NNE 20:07:56 11° ENE
NOSS 2-3 (C) 4.5 20:00:59 10° NW 20:05:48 72° NNW 20:05:48 72° NNW
Aureole 1 Rocket 4.4 20:02:54 10° NNW 20:06:29 40° NW 20:06:29 40° NW
NOSS 2-3 (D) 4.5 20:03:36 10° NW 20:08:19 70° NNW 20:08:19 70° NNW
ADEOS Rocket 4.4 20:08:22 29° WSW 20:10:03 32° W 20:16:12 10° NNW
SJ 16-02 3.4 20:07:12 10° NW 20:09:25 23° WNW 20:09:25 23° WNW
Cosmos 2227 Rocket 2.8 20:10:24 50° WNW 20:11:07 53° NW 20:16:42 10° NNE
SL-16 R/B 4.0 20:12:50 10° NW 20:16:53 22° W 20:16:53 22° W
ALOS 2 4.3 20:19:43 30° N 20:19:43 30° N 20:22:03 10° N
CZ-4C R/B 3.4 20:11:10 10° NW 20:17:35 46° WSW 20:17:35 46° WSW
ATLAS 2AS CENTAUR R/B 4.2 20:22:11 24° ENE 20:22:11 24° ENE 20:25:18 10° ENE
Tsikada Rocket 4.2 20:20:52 61° WNW 20:20:56 61° WNW 20:27:04 10° N
Cosmos 1833 Rocket 4.1 20:16:54 10° NNW 20:21:53 30° NNE 20:22:38 29° NE
USA 229 DEB 4.4 20:21:46 10° WNW 20:28:31 51° NNE 20:32:10 29° ENE
USA 229 4.5 20:21:52 10° WNW 20:28:37 51° NNE 20:32:18 29° ENE
NOSS 3-4 (A) 4.0 20:38:00 51° NE 20:38:00 51° NE 20:42:55 10° NE
NOSS 3-4 (C) 4.0 20:38:10 50° NE 20:38:10 50° NE 20:43:00 10° NE
NOSS 3-1 (A) 4.0 20:48:26 10° NW 20:55:08 68° NNE 20:56:06 62° ENE
ATLAS 3B R/B 3.0 20:55:36 10° NW 21:02:17 69° W 21:02:17 69° W
Cosmos 2263 Rocket 3.1 21:05:49 45° N 21:05:49 45° N 21:09:51 10° NNE
ATLAS CENTAUR R/B 3.6 21:00:18 10° W 21:08:51 58° WNW 21:08:51 58° WNW
Cosmos 1844 Rocket 4.2 21:17:09 27° NE 21:17:09 27° NE 21:19:49 10° NE
Cosmos 2344 4.1 21:20:52 10° NW 21:28:53 59° SW 21:28:53 59° SW
Cosmos 2297 Rocket 4.5 21:36:59 10° WNW 21:41:14 21° NNW 21:45:30 10° NNE
NOSS 3-1 (C) 4.3 21:36:28 10° NW 21:41:41 53° WNW 21:41:41 53° WNW
Resurs 1-4 Rocket 4.3 21:41:56 10° NE 21:44:25 16° ENE 21:44:25 16° ENE
Cosmos 1238 Rocket 4.4 21:48:43 56° NNE 21:48:43 56° NNE 21:53:28 10° NNE
Cosmos 1553 Rocket 4.3 21:41:54 10° N 21:47:13 63° N 21:47:13 63° N
Cosmos 2082 Rocket 3.2 21:44:22 10° NNW 21:49:43 41° NE 21:49:45 41° NE
Cosmos 2227 Rocket 4.3 21:52:06 10° WNW 21:56:27 22° NNW 22:00:52 10° NNE
Cosmos 1833 Rocket 3.8 22:00:49 10° NW 22:04:18 39° NW 22:04:18 39° NW
Cosmos 2278 Rocket 4.2 22:08:26 19° E 22:08:26 19° E 22:11:13 10° NE
COSMOS 2406 3.9 22:02:38 10° NNW 22:07:31 50° NNE 22:07:31 50° NNE
ATLAS 2AS CENTAUR R/B 2.8 22:09:35 83° NNE 22:09:35 83° NNE 22:16:32 10° NE
SL-16 R/B 3.4 22:12:58 39° E 22:14:08 43° ENE 22:20:01 10° N
Cosmos 1844 4.3 22:18:08 54° NNE 22:18:08 54° NNE 22:22:32 10° NE
Lacrosse 4 Rocket 4.3 22:21:13 11° ENE 22:21:13 11° ENE 22:21:29 10° ENE
USA 229 DEB 3.8 22:12:58 10° NW 22:19:33 78° NW 22:19:33 78° NW
USA 229 3.8 22:13:04 10° NW 22:19:41 79° NW 22:19:41 79° NW
IDEFIX/ARIANE 42P 4.5 22:18:44 10° NE 22:22:12 21° E 22:22:12 21° E
GEOS 3 Rocket 4.4 22:26:49 49° NE 22:27:13 50° NNE 22:32:23 10° NW
NOSS 3-4 (A) 4.4 22:25:21 29° WNW 22:28:05 45° N 22:34:38 10° ENE
NOSS 3-4 (C) 4.4 22:25:31 29° WNW 22:28:11 45° N 22:34:44 10° ENE
Meteor 2-3 Rocket 4.2 22:28:33 10° NNW 22:33:12 56° NNE 22:33:12 56° NNE
Cosmos 1943 Rocket 4.4 22:37:32 15° E 22:37:44 15° E 22:40:42 10° ENE
Cosmos 2263 Rocket 4.0 22:47:28 20° NW 22:49:18 24° NNW 22:53:48 10° NNE
S3M 4.4 22:43:19 10° NNW 22:48:10 53° NW 22:48:10 53° NW
Cosmos 1844 Rocket 3.4 22:58:47 44° NNW 22:58:47 44° NNW 23:03:49 10° NNE
ADEOS II 3.3 22:55:54 10° NNE 23:00:36 33° E 23:00:36 33° E
CZ-2D R/B 2.8 22:58:11 10° NNE 23:02:42 49° ENE 23:02:42 49° ENE
Cosmos 2315 Rocket 4.1 22:58:27 10° NNW 23:03:56 67° NW 23:03:56 67° NW
Cosmos 841 Rocket 4.1 23:09:33 51° N 23:09:33 51° N 23:13:46 10° NNE
Meteor 2-1 Rocket 4.5 23:18:48 59° NNW 23:18:48 59° NNW 23:23:34 10° N
Resurs 1-4 Rocket 2.2 23:20:32 10° NNE 23:25:30 72° ENE 23:25:30 72° ENE
Cosmos 2266 Rocket 4.0 23:26:29 62° WNW 23:26:29 62° WNW 23:32:14 10° N
Thor Agena Rocket 3.9 23:27:55 10° NNE 23:32:54 54° E 23:32:54 54° E
Cosmos 2082 Rocket 3.3 23:28:32 10° NW 23:31:34 32° NW 23:31:34 32° NW
Nadezhda 1 Rocket 4.3 23:30:52 10° N 23:36:58 61° ENE 23:39:28 36° SE
ATLAS 5 CENTAUR R/B 3.9 23:40:38 13° ESE 23:40:38 13° ESE 23:41:57 10° E
Cosmos 1655 Rocket 4.1 23:39:57 60° WNW 23:40:01 60° WNW 23:46:13 10° N
USA 81 4.4 23:34:55 10° N 23:39:16 57° NW 23:39:16 57° NW
Meteor 2-12 Rocket 4.3 23:46:08 68° SSE 23:46:55 80° E 23:53:00 10° NNE
NPP 3.5 23:44:46 10° NNE 23:50:12 83° WNW 23:50:15 83° W
Cosmos 2278 Rocket 2.0 23:50:16 82° S 23:50:29 86° ESE 23:56:12 10° NE
AQUA 3.9 23:48:48 10° NNE 23:53:18 76° ENE 23:53:18 76° ENE
Cosmos 1570 Rocket 3.9 23:54:03 80° NW 23:54:03 80° NW 23:59:22 10° NNE
Cosmos-2242 4.2 23:54:07 35° ESE 23:54:30 36° E 23:58:28 10° NNE
ALOS 3.9 23:50:57 10° NNE 23:55:00 28° E 23:56:37 23° SE
Cosmos 1606 3.9 23:56:58 39° NNE 23:56:58 39° NNE 23:59:27 10° NNE
